Погода в Дженне

Мали     13°54′02″N   4°33′20″W
темп.,
°C
ветер,
м/с
пор.,
м/с
влажн.,
%
обл.,
%
осадки,
мм/ч
давл.,
гПа
погр.,
м
11 мая, вт
вт1100:00+34ююв6113142 0.0 1009736
03:00+33ююз373214 0.0 1008235
06:00+31ююз363616 0.0 1010185
09:00+36ю562982 0.0 1012912
12:00+39ю342165 0.0 10102393
15:00+41вюв2616100 0.0 10064349
18:00+38вюв10111992 0.1 10071114
21:00+37в4920100 0.0 1009366
12 мая, ср
ср1200:00+34юз112971 0.0 101029
03:00+34ююз353066 0.0 1009189
06:00+32ююз223587 0.0 101033
09:00+35зюз56305 0.0 1011617
12:00+41з45195 0.0 10093028
15:00+41з3316100 0.0 10063796
18:00+39з341876 0.0 1006300
21:00+36юз33225 0.0 100725
13 мая, чт
чт1300:00+34зюз452698 0.0 100778
03:00+33зюз333096 0.0 100639
06:00+32з5113021 0.0 1008269
09:00+38з65145 0.0 10091344
12:00+42сз3471 0.0 10062200
15:00+44св6676 0.0 10034641
18:00+43св34884 0.0 1002144
21:00+38ю3311100 0.0 100429
14 мая, пт
пт1400:00+34ю112375 0.0 100532
03:00+33ююз6123110 0.0 1005407
06:00+32зюз6133866 0.0 1006366
09:00+37ююз7826100 0.0 10081254
12:00+41юз6620100 0.0 10062555
15:00+42юз6416100 0.0 10033730
18:00+34вюв141430100 0.0 1004413
21:00+38юв6816100 0.0 1005157
15 мая, сб
сб1500:00+31ю9144258 0.0 1008592
03:00+31ююз61144100 0.0 1006342
06:00+31ююв2640100 0.0 1008332
09:00+36ююз5526100 0.0 1009935
12:00+39в5720100 0.0 10082103
15:00+40св4418100 0.0 10062426
18:00+39всв4419100 0.0 10061145
21:00+35ююз3526100 0.0 1007116